When you browse on this site, cookies collect data to enhance your experience and personalize the content and advertising you see.
Visit our Privacy Policy to learn more. By continuing to use the site, you agree to this use of cookies and data.
  • In Latvia
  • List of Countries
  • For 7 days
  • Water Temperature
  • Satellite Maps
  • Weather Map
  • Weather Widgets
  • user-avatar
    Login

    Hourly Weather Ischgl

    Today, 21 January, Monday

    Time Temperature Precipitation Wind Pressure Humidity
    00:00 -14°C° 0.1 mm 0 mps 565 mmHg 91%
    01:00 -14°C° 0.1 mm 0 mps 565 mmHg 91%
    02:00 -14°C° 0 mm 0 mps 565 mmHg 91%
    03:00 -15°C° 0 mm 0 mps 564 mmHg 91%
    04:00 -15°C° 0 mm 0 mps 564 mmHg 91%
    05:00 -15°C° 0 mm 1 mps 564 mmHg 90%
    06:00 -16°C° 0 mm 1 mps 564 mmHg 90%
    07:00 -16°C° 0 mm 1 mps 564 mmHg 90%
    08:00 -15°C° 0 mm 1 mps 565 mmHg 88%
    09:00 -13°C° 0 mm 1 mps 566 mmHg 86%
    10:00 -11°C° 0 mm 0 mps 567 mmHg 85%
    11:00 -11°C° 0 mm 1 mps 567 mmHg 84%
    12:00 -10°C° 0 mm 1 mps 567 mmHg 83%
    13:00 -9°C° 0 mm 1 mps 567 mmHg 82%
    14:00 -9°C° 0 mm 1 mps 567 mmHg 84%
    15:00 -9°C° 0 mm 1 mps 567 mmHg 86%
    16:00 -9°C° 0 mm 1 mps 567 mmHg 88%
    17:00 -11°C° 0 mm 1 mps 566 mmHg 90%
    18:00 -13°C° 0 mm 1 mps 565 mmHg 93%
    19:00 -14°C° 0 mm 1 mps 564 mmHg 96%
    20:00 -15°C° 0 mm 0 mps 564 mmHg 96%
    21:00 -16°C° 0 mm 0 mps 564 mmHg 96%
    22:00 -17°C° 0 mm 0 mps 563 mmHg 95%
    23:00 -17°C° 0 mm 1 mps 563 mmHg 94%

    Tomorrow, 22 January, Tuesday

    Time Temperature Precipitation Wind Pressure Humidity
    00:00 -18°C° 0 mm 1 mps 562 mmHg 94%
    01:00 -18°C° 0 mm 1 mps 562 mmHg 93%
    02:00 -18°C° 0 mm 1 mps 561 mmHg 90%
    03:00 -18°C° 0 mm 1 mps 561 mmHg 86%
    04:00 -18°C° 0 mm 1 mps 561 mmHg 83%
    05:00 -18°C° 0 mm 1 mps 560 mmHg 79%
    06:00 -18°C° 0 mm 1 mps 560 mmHg 75%
    07:00 -18°C° 0 mm 1 mps 560 mmHg 70%
    08:00 -16°C° 0 mm 1 mps 560 mmHg 70%
    09:00 -14°C° 0 mm 1 mps 561 mmHg 69%
    10:00 -12°C° 0 mm 1 mps 562 mmHg 69%
    11:00 -11°C° 0 mm 1 mps 562 mmHg 66%
    12:00 -9°C° 0 mm 1 mps 562 mmHg 63%
    13:00 -8°C° 0 mm 1 mps 562 mmHg 60%
    14:00 -9°C° 0 mm 1 mps 561 mmHg 65%
    15:00 -10°C° 0 mm 1 mps 560 mmHg 69%
    16:00 -10°C° 0 mm 1 mps 558 mmHg 74%
    17:00 -12°C° 0 mm 1 mps 557 mmHg 74%
    18:00 -16°C° 0 mm 2 mps 556 mmHg 73%
    19:00 -18°C° 0 mm 2 mps 555 mmHg 73%
    20:00 -19°C° 0 mm 2 mps 555 mmHg 71%
    21:00 -19°C° 0 mm 2 mps 554 mmHg 70%
    22:00 -20°C° 0 mm 2 mps 554 mmHg 68%
    23:00 -20°C° 0 mm 2 mps 553 mmHg 67%

    Day after tomorrow, 23 January, Wednesday

    Time Temperature Precipitation Wind Pressure Humidity
    00:00 -20°C° 0 mm 2 mps 553 mmHg 67%
    01:00 -21°C° 0 mm 2 mps 552 mmHg 66%
    02:00 -21°C° 0 mm 2 mps 552 mmHg 66%
    03:00 -21°C° 0 mm 2 mps 552 mmHg 66%
    04:00 -21°C° 0 mm 2 mps 551 mmHg 66%
    05:00 -21°C° 0 mm 2 mps 551 mmHg 65%
    06:00 -21°C° 0 mm 2 mps 551 mmHg 64%
    07:00 -19°C° 0 mm 1 mps 551 mmHg 64%
    08:00 -17°C° 0 mm 1 mps 552 mmHg 65%
    09:00 -16°C° 0 mm 1 mps 553 mmHg 67%
    10:00 -14°C° 0 mm 1 mps 554 mmHg 68%
    11:00 -13°C° 0 mm 1 mps 555 mmHg 64%
    12:00 -11°C° 0 mm 1 mps 555 mmHg 60%
    13:00 -10°C° 0 mm 1 mps 556 mmHg 56%
    14:00 -11°C° 0 mm 1 mps 556 mmHg 64%
    15:00 -11°C° 0 mm 1 mps 555 mmHg 72%
    16:00 -12°C° 0 mm 1 mps 555 mmHg 80%
    17:00 -14°C° 0 mm 1 mps 554 mmHg 80%
    18:00 -16°C° 0 mm 1 mps 554 mmHg 80%
    19:00 -18°C° 0 mm 1 mps 553 mmHg 81%
    20:00 -18°C° 0 mm 1 mps 554 mmHg 78%
    21:00 -18°C° 0 mm 1 mps 554 mmHg 75%
    22:00 -19°C° 0 mm 1 mps 554 mmHg 72%
    23:00 -18°C° 0 mm 1 mps 554 mmHg 70%

    24 January, Thursday

    Time Temperature Precipitation Wind Pressure Humidity
    00:00 -18°C° 0 mm 1 mps 555 mmHg 69%
    01:00 -18°C° 0 mm 1 mps 555 mmHg 67%
    02:00 -18°C° 0 mm 1 mps 555 mmHg 69%
    03:00 -18°C° 0 mm 1 mps 556 mmHg 70%
    04:00 -18°C° 0 mm 1 mps 556 mmHg 72%
    05:00 -18°C° 0 mm 1 mps 556 mmHg 73%
    06:00 -18°C° 0 mm 1 mps 557 mmHg 75%
    07:00 -18°C° 0 mm 1 mps 557 mmHg 77%
    08:00 -16°C° 0 mm 1 mps 558 mmHg 78%
    09:00 -15°C° 0 mm 1 mps 560 mmHg 79%
    10:00 -13°C° 0 mm 1 mps 561 mmHg 81%
    11:00 -14°C° 0 mm 2 mps 562 mmHg 81%
    12:00 -13°C° 0 mm 2 mps 562 mmHg 82%
    13:00 -12°C° 0 mm 2 mps 563 mmHg 83%
    14:00 -12°C° 0 mm 2 mps 562 mmHg 86%
    15:00 -13°C° 0 mm 2 mps 562 mmHg 89%
    16:00 -13°C° 0 mm 2 mps 562 mmHg 93%
    17:00 -15°C° 0 mm 2 mps 562 mmHg 94%
    18:00 -16°C° 0 mm 2 mps 562 mmHg 95%
    19:00 -18°C° 0 mm 2 mps 561 mmHg 96%
    20:00 -18°C° 0 mm 2 mps 562 mmHg 96%
    21:00 -16°C° 0 mm 1 mps 562 mmHg 96%
    22:00 -17°C° 0 mm 1 mps 562 mmHg 96%
    23:00 -17°C° 0 mm 1 mps 562 mmHg 96%

    25 January, Friday

    Time Temperature Precipitation Wind Pressure Humidity
    00:00 -17°C° 0 mm 1 mps 562 mmHg 96%
    01:00 -17°C° 0 mm 1 mps 563 mmHg 96%
    02:00 -17°C° 0 mm 1 mps 563 mmHg 96%
    03:00 -19°C° 0 mm 2 mps 563 mmHg 96%
    04:00 -18°C° 0 mm 2 mps 563 mmHg 95%
    05:00 -17°C° 0 mm 1 mps 563 mmHg 95%
    06:00 -17°C° 0 mm 1 mps 563 mmHg 95%
    07:00 -17°C° 0 mm 1 mps 563 mmHg 95%
    08:00 -16°C° 0 mm 1 mps 564 mmHg 93%
    09:00 -14°C° 0 mm 1 mps 565 mmHg 91%
    10:00 -15°C° 0 mm 2 mps 566 mmHg 90%
    11:00 -14°C° 0 mm 2 mps 566 mmHg 90%
    12:00 -13°C° 0 mm 2 mps 566 mmHg 89%
    13:00 -12°C° 0 mm 2 mps 567 mmHg 89%
    14:00 -12°C° 0 mm 2 mps 566 mmHg 90%
    15:00 -12°C° 0 mm 2 mps 566 mmHg 91%
    16:00 -12°C° 0 mm 2 mps 566 mmHg 92%
    17:00 -14°C° 0 mm 2 mps 565 mmHg 93%
    18:00 -14°C° 0 mm 1 mps 565 mmHg 94%
    19:00 -16°C° 0 mm 1 mps 564 mmHg 95%
    20:00 -16°C° 0 mm 1 mps 564 mmHg 91%
    21:00 -16°C° 0 mm 1 mps 564 mmHg 88%
    22:00 -16°C° 0 mm 1 mps 564 mmHg 84%
    23:00 -16°C° 0 mm 1 mps 564 mmHg 79%

    26 January, Saturday

    Time Temperature Precipitation Wind Pressure Humidity
    00:00 -16°C° 0 mm 1 mps 564 mmHg 74%
    01:00 -15°C° 0 mm 1 mps 564 mmHg 69%
    02:00 -14°C° 0 mm 1 mps 564 mmHg 68%
    03:00 -14°C° 0 mm 1 mps 565 mmHg 67%
    04:00 -13°C° 0 mm 1 mps 565 mmHg 66%
    05:00 -13°C° 0 mm 1 mps 565 mmHg 71%
    06:00 -13°C° 0 mm 1 mps 565 mmHg 76%
    07:00 -13°C° 0 mm 1 mps 565 mmHg 81%
    08:00 -11°C° 0 mm 1 mps 565 mmHg 83%
    09:00 -9°C° 0 mm 1 mps 566 mmHg 84%
    10:00 -8°C° 0 mm 1 mps 567 mmHg 86%
    11:00 -6°C° 0 mm 1 mps 567 mmHg 85%
    12:00 -4°C° 0 mm 1 mps 567 mmHg 84%
    13:00 -3°C° 0 mm 1 mps 567 mmHg 82%
    14:00 -3°C° 0 mm 1 mps 566 mmHg 84%
    15:00 -4°C° 0 mm 1 mps 566 mmHg 85%
    16:00 -4°C° 0 mm 1 mps 565 mmHg 87%
    17:00 -7°C° 0 mm 1 mps 564 mmHg 86%
    18:00 -9°C° 0 mm 2 mps 563 mmHg 85%
    19:00 -12°C° 0 mm 2 mps 562 mmHg 85%
    20:00 -13°C° 0 mm 3 mps 561 mmHg 83%
    21:00 -14°C° 0 mm 3 mps 561 mmHg 81%
    22:00 -14°C° 0 mm 3 mps 560 mmHg 78%
    23:00 -14°C° 0 mm 3 mps 560 mmHg 78%
    Show more